Theta_e
325 323 321 321 321 321 319 313 312 311 309 310 310 308 307 306 304 302 304 312 315 317 319 320 321 321 322 321 321 320 320 321 322 323 324 327 328 324 323 322 323 324 324
320 318 316 315 315 316 314 312 311 309 306 306 307 307 306 305 304 302 301 303 310 312 314 316 314 317 319 320 321 321 321 319 318 318 319 320 324 325 324 323 322 323 323
314 312 312 312 312 312 309 308 304 303 299 300 301 305 304 303 301 300 299 297 297 301 306 309 308 309 313 315 317 318 319 320 319 318 318 318 319 320 321 325 323 323 322
308 305 303 301 302 303 302 299 297 295 295 297 298 301 300 299 298 297 295 293 293 293 296 303 301 304 308 310 314 315 317 318 318 317 316 315 315 317 319 320 321 324 323
301 300 298 296 297 298 298 294 291 292 291 295 299 298 297 296 296 293 290 290 290 289 289 295 296 298 303 305 310 312 313 313 312 311 312 313 314 314 315 316 318 320 323
295 293 291 291 293 293 292 290 288 287 287 292 296 294 294 292 292 288 286 287 287 287 287 288 287 288 297 301 305 308 310 310 310 309 309 308 309 310 310 312 314 316 318
291 290 289 289 288 288 287 288 287 285 285 286 294 293 291 289 286 286 285 284 284 285 285 286 285 285 288 296 301 304 307 307 307 306 305 305 305 306 307 308 310 313 315
288 288 287 286 286 286 285 285 286 284 284 283 289 289 287 290 286 284 283 283 281 283 284 285 284 285 286 288 295 299 301 302 302 302 302 302 302 304 305 306 308 309 311
287 287 286 286 285 285 283 283 283 283 281 282 282 284 278 277 279 285 281 281 281 281 281 282 284 284 285 287 289 289 295 296 298 299 299 300 301 302 303 305 306 307 308
285 285 285 285 284 284 283 283 283 282 282 280 281 282 280 279 276 275 278 279 280 281 280 280 281 283 284 284 286 288 291 293 293 295 296 297 299 300 301 302 304 305 306
283 284 284 283 283 283 282 282 281 281 281 280 279 279 278 278 277 276 274 276 278 278 279 280 280 280 282 282 282 284 288 289 291 291 292 293 295 297 299 300 301 302 303
282 282 283 282 282 282 281 281 280 280 280 279 279 279 278 277 276 275 274 275 275 277 278 279 279 280 280 280 282 285 286 287 288 289 290 291 292 294 296 298 299 300 301
280 280 281 281 281 281 281 281 280 279 279 278 278 278 278 278 279 278 277 275 274 276 277 277 278 279 280 279 279 283 283 285 286 288 288 289 290 291 293 295 296 298 299
281 280 280 281 280 280 280 279 279 279 278 277 277 278 278 278 279 278 278 275 273 274 274 275 277 277 278 278 280 282 278 282 285 286 287 287 288 289 291 293 295 295 296
281 280 279 279 279 279 279 278 278 277 277 277 277 277 277 277 277 277 277 277 275 271 271 273 274 276 276 277 278 278 277 279 283 284 285 286 287 288 289 290 291 292 294
280 279 278 278 278 278 278 277 277 277 276 276 276 276 276 276 276 276 276 276 275 273 270 274 273 274 276 277 278 277 276 280 280 282 283 284 286 287 287 287 289 290 291
279 279 279 278 278 277 277 277 276 276 276 276 276 276 276 276 274 274 274 274 274 273 271 273 273 274 274 274 275 275 276 276 276 280 282 284 285 285 285 286 287 287 288
279 279 278 278 277 277 277 276 276 276 275 276 276 275 275 277 274 274 273 273 272 272 271 270 273 273 273 274 274 274 276 277 276 279 282 283 283 284 284 285 285 286 286
278 278 278 277 277 277 276 276 276 276 276 276 276 275 275 275 274 273 273 272 272 274 272 271 271 273 273 274 274 275 275 276 277 280 281 282 282 283 283 284 284 284 284
278 277 277 277 277 276 277 276 276 276 276 276 276 276 275 274 274 273 273 273 273 272 272 271 271 272 273 274 275 273 273 275 275 277 279 280 281 281 282 282 283 282 282
278 278 277 276 277 276 277 276 276 275 275 275 275 276 275 275 277 277 275 273 273 271 272 271 271 272 272 273 272 273 272 273 274 275 275 276 276 276 277 280 280 281 282
277 277 277 276 275 276 280 281 277 275 275 275 274 274 275 274 276 279 279 280 278 270 260 267 272 273 272 272 272 272 272 270 268 274 272 272 274 274 276 276 280 282 282
277 276 276 276 275 274 282 282 282 276 275 274 274 274 275 275 274 273 276 278 278 278 279 277 274 272 272 272 273 271 271 270 269 271 271 269 273 273 275 277 280 281 282
277 276 276 275 274 275 281 283 282 276 275 275 274 274 274 274 274 273 273 272 273 274 275 276 275 274 274 275 274 272 270 268 269 270 272 267 270 270 273 273 277 279 281
276 276 276 274 273 273 281 282 281 275 275 274 274 274 273 273 275 278 275 271 273 274 278 279 279 278 277 277 274 270 264 264 264 266 269 268 269 268 271 271 274 278 279
277 275 275 273 272 271 279 282 281 275 270 273 273 274 276 275 277 278 275 273 270 271 272 267 268 270 271 270 272 270 268 263 264 263 269 266 267 268 265 270 272 272 273
Wind_Speed
5 5 5 4 4 4 4 4 4 5 6 6 6 6 6 6 7 5 5 19 20 22 22 23 23 22 21 21 20 19 19 19 20 22 22 20 18 11 11 10 10 11 12
6 5 5 4 4 4 4 4 4 5 4 5 6 6 6 5 8 9 7 9 23 24 23 23 24 23 22 22 21 20 20 19 19 19 20 22 23 12 14 13 12 12 13
7 6 5 5 4 4 6 5 5 5 5 4 7 6 5 7 10 11 9 8 9 21 24 23 25 26 24 23 22 21 20 21 19 20 21 22 23 23 22 18 14 14 12
7 7 6 4 4 4 4 4 4 5 4 5 4 4 6 8 10 11 10 8 8 7 13 24 24 24 24 25 24 23 21 21 23 23 22 21 22 23 25 24 21 23 15
7 7 5 4 5 5 5 4 5 4 4 4 6 6 6 7 7 8 11 11 11 9 7 17 22 22 24 25 24 25 23 23 24 23 22 24 25 24 24 24 25 24 22
8 8 6 6 4 6 5 4 5 6 4 3 8 8 5 5 6 6 8 8 8 9 8 9 7 10 22 24 23 23 24 23 23 24 24 25 26 25 26 27 27 26 25
7 8 6 6 5 6 5 4 3 6 8 4 4 5 4 5 8 5 4 7 9 7 8 8 6 6 8 21 22 23 25 25 25 24 26 27 27 27 27 26 27 27 26
6 8 7 6 6 7 6 5 4 3 4 5 3 2 1 1 4 5 5 7 7 5 8 8 8 10 8 7 16 23 26 26 26 27 27 27 28 28 27 28 26 26 26
7 8 7 7 7 5 6 5 5 6 4 4 7 4 3 1 2 2 4 5 7 5 5 6 8 8 9 7 11 16 27 27 27 28 27 27 28 27 28 28 27 26 27
7 6 7 7 6 5 7 5 5 4 4 3 3 6 7 3 3 4 3 4 5 6 5 4 5 6 8 7 14 21 25 26 27 27 28 28 28 28 27 28 28 28 27
6 6 6 7 7 6 5 7 7 7 4 4 3 1 4 4 5 3 3 5 4 3 3 3 4 4 6 8 8 14 24 27 26 27 29 29 28 28 28 27 28 28 27
4 6 6 6 6 6 7 6 7 7 5 5 4 4 3 3 1 3 1 3 3 4 3 3 3 4 4 7 12 22 24 24 27 28 27 29 28 28 28 27 27 28 28
3 5 6 6 6 7 7 7 6 5 5 4 4 3 4 3 2 2 2 2 3 3 3 3 2 3 6 6 7 21 21 26 26 27 27 27 28 28 29 28 28 27 26
6 5 6 7 7 7 6 6 4 4 5 5 7 5 3 3 3 1 1 1 3 3 2 5 1 3 5 7 14 22 11 24 26 27 26 26 27 28 27 29 29 29 29
6 6 6 7 6 6 6 6 4 5 5 4 5 5 3 2 3 3 2 1 2 3 3 3 3 1 4 7 10 11 11 19 25 25 26 26 27 27 28 28 28 29 29
7 8 7 7 7 6 6 6 5 4 5 3 3 5 3 2 3 2 1 2 1 2 4 2 3 4 7 8 11 12 12 22 21 23 25 27 26 27 27 27 27 27 27
9 9 8 8 7 7 6 6 5 6 5 5 4 4 4 3 2 2 2 1 1 1 4 5 2 6 7 12 11 10 12 11 10 22 26 26 28 28 27 27 27 27 26
8 9 8 7 6 6 6 7 7 5 5 5 4 4 3 2 2 2 1 3 3 2 2 10 8 6 10 11 12 13 10 10 11 18 27 28 28 28 28 28 28 27 27
8 7 7 7 7 7 7 6 6 6 5 5 4 4 4 4 2 2 3 3 3 4 3 5 9 7 9 9 12 11 11 12 10 22 26 27 28 28 28 29 28 27 27
10 9 7 7 7 7 6 6 6 5 5 4 4 4 5 4 5 4 4 4 4 4 4 6 8 10 9 10 8 11 13 10 13 13 19 20 25 25 27 30 27 26 27
9 8 8 6 7 7 6 7 6 6 6 5 5 5 4 5 8 7 4 4 4 4 4 6 8 9 9 9 11 11 12 13 13 12 12 10 13 13 13 18 21 24 25
8 8 8 8 7 6 13 14 8 6 5 5 5 5 4 5 7 11 13 13 9 4 4 2 8 9 11 10 10 11 11 13 16 8 12 14 11 11 11 10 22 26 26
8 9 8 8 8 6 16 15 14 6 5 5 5 4 4 3 5 5 10 14 13 14 15 11 10 8 12 11 11 13 14 13 13 14 14 14 11 11 10 11 22 27 28
11 9 9 8 7 7 17 15 15 6 5 6 6 5 5 5 6 6 7 8 9 9 9 8 9 9 9 9 11 11 12 12 12 12 11 14 12 12 10 12 28 28 25
8 9 7 8 9 7 17 16 14 5 7 7 6 6 6 7 11 15 9 7 9 8 9 15 17 16 17 20 16 8 7 9 12 12 11 8 9 14 11 12 9 20 22
9 7 8 8 9 8 16 16 14 4 5 6 5 7 12 12 16 16 10 8 9 7 6 2 3 7 9 10 14 8 7 8 9 9 4 8 13 11 8 8 8 12 10
Wind_Direction
94 88 67 58 46 54 65 61 58 50 41 38 41 44 38 38 52 55 48 47 47 46 41 37 32 28 26 21 16 11 5 1 353 353 353 348 340 303 322 319 312 314 311
88 82 79 70 57 59 64 68 62 67 50 51 48 48 55 50 62 66 64 51 51 47 40 40 31 26 20 17 12 12 10 10 2 358 353 351 352 334 320 311 311 307 306
88 94 91 83 69 73 76 72 59 63 52 43 52 48 51 53 68 63 58 51 38 37 37 37 29 25 21 19 14 9 4 4 7 6 2 358 354 349 341 311 302 295 297
90 90 90 82 74 70 75 68 47 60 57 67 76 58 60 71 71 68 62 51 47 34 31 36 27 22 22 16 14 13 10 11 12 6 358 355 349 345 343 342 334 334 281
91 96 90 76 78 76 66 69 50 71 48 45 74 65 65 69 68 67 58 46 42 30 28 23 22 22 21 16 14 12 11 12 12 6 1 1 357 350 346 339 338 338 341
94 97 85 80 74 84 70 63 77 57 72 67 82 72 61 63 73 68 63 50 40 29 25 21 13 11 17 15 13 12 9 7 6 4 0 359 354 351 348 343 336 335 330
94 100 95 89 80 84 75 53 79 55 36 6 107 72 59 66 67 50 53 47 36 23 21 20 16 12 6 14 11 14 10 5 2 358 353 349 346 343 341 339 336 332 327
93 94 101 94 88 92 71 61 66 92 58 6 113 107 71 327 38 47 41 41 26 10 18 13 14 13 13 14 21 13 6 358 352 348 344 341 339 336 335 332 333 329 327
82 90 91 92 87 88 86 69 68 85 113 23 42 124 91 203 346 352 29 38 23 7 5 360 8 13 18 19 16 4 355 352 350 345 343 340 337 335 332 329 327 325 323
80 87 93 94 89 86 85 79 59 77 100 123 49 39 60 117 113 332 357 14 359 4 354 354 4 12 24 18 6 357 353 351 346 344 340 337 334 331 328 326 324 322 320
79 83 87 91 92 87 85 89 71 61 45 90 85 123 63 65 62 95 292 326 344 330 327 355 355 26 26 15 357 351 350 344 341 340 335 331 330 327 324 322 320 317 316
92 84 90 95 96 98 90 85 79 80 82 78 76 66 103 112 69 82 357 284 255 287 316 318 25 28 29 2 354 348 343 341 338 333 332 329 327 323 321 320 320 318 313
126 132 123 118 109 106 102 99 99 103 101 102 98 88 79 81 107 97 133 295 289 303 314 303 40 40 15 357 347 342 340 336 334 330 330 327 326 325 322 317 312 310 310
146 148 129 113 108 110 105 101 100 103 105 102 96 88 92 87 76 80 115 100 317 302 318 271 0 32 14 341 336 337 329 330 328 330 328 328 326 322 317 317 320 317 313
139 136 123 117 122 120 120 124 119 118 116 106 106 106 106 103 92 86 79 125 137 320 292 310 304 49 360 330 321 326 322 318 324 324 324 325 322 322 320 316 316 313 313
142 139 132 134 135 135 133 126 123 132 120 120 118 120 115 104 99 108 99 60 85 200 278 247 278 319 325 315 319 323 312 316 314 316 319 320 318 320 318 318 316 311 312
150 148 151 147 147 146 147 137 138 143 138 139 147 141 121 133 145 102 92 167 224 178 267 287 285 317 311 317 319 312 307 305 307 311 315 312 316 316 315 315 310 310 312
156 153 154 153 149 150 153 154 156 149 161 176 169 148 164 157 180 170 166 220 222 239 252 289 302 314 310 314 305 304 305 302 301 304 309 312 310 311 311 309 308 305 310
156 154 156 157 162 167 161 166 157 163 185 191 183 183 200 197 223 206 217 223 237 258 234 271 289 300 302 309 308 305 307 309 303 308 307 305 307 305 307 309 306 306 310
161 165 168 163 166 170 168 169 163 168 198 205 208 212 215 216 225 231 223 231 242 235 237 258 280 298 301 306 298 314 316 313 310 306 301 302 303 303 303 306 305 305 304
170 168 160 165 176 179 175 178 176 177 201 210 224 230 229 233 246 236 217 222 232 234 247 271 287 294 298 317 319 317 306 308 308 312 310 306 307 301 297 298 297 297 293
165 164 176 177 184 192 197 194 175 189 201 214 229 236 240 247 260 264 271 272 256 215 215 225 284 286 306 312 310 307 314 315 315 304 315 304 300 300 299 292 294 301 305
166 183 184 187 200 191 207 201 201 196 204 216 220 229 240 227 231 236 261 271 276 276 273 278 290 294 299 306 307 316 313 308 302 304 303 301 302 297 300 302 310 306 306
182 187 192 193 202 209 215 206 217 190 206 217 219 222 232 239 231 242 245 246 246 246 253 259 264 281 280 302 310 309 305 304 295 293 306 294 307 298 316 305 299 301 300
181 190 189 189 200 216 215 215 220 180 213 223 218 220 228 241 246 259 259 251 258 255 249 268 283 301 305 310 310 311 304 309 307 307 307 290 317 310 305 296 295 316 321
194 181 197 201 206 217 216 221 224 180 215 225 225 240 239 248 255 257 252 247 257 248 239 254 285 296 301 300 309 299 294 297 305 309 349 324 311 327 305 290 315 301 300